Location: Bathsheba
(13.2167°N, 59.5167°W)
Time: 23:35:43
(UTC+00:00)

Intelsat 5-1 Rocket - Pass Details

Date: 18 September 2020
Orbit: 310 x 7605 km, 23.9° (Epoch: 20 October)

Event Time Altitude Azimuth Distance (km) Brightness Sun altitude
Rises 22:38:07 0° 243° (WSW) 10,762 9.5 -10.9°
Reaches altitude 10° 22:48:34 10° 243° (WSW) 8,474 8.7 -13.5°
Maximum altitude 23:12:41 79° 159° (SSE) 1,925 4.4 -19.3°
Enters shadow 23:17:20 29° 77° (ENE) 2,164 4.3 -20.4°
